Showing default

INTELSAT 32E, 41945

Orbit data source: Space-Track

INTELSAT 32E, 41945 is an American payload satellite in GEO that was launched on Tue, 14 Feb 2017 UTC via an ARIANE 5ECA launch vehicle from the French Guiana (FRGUI). Payload-class satellites include a variety of spacecraft equipped with specific instruments for various scientific and technological missions. These include communications satellites like Starlink; space stations such as the ISS; scientific satellites like the Hubble; Earth observation satellites from companies like Planet Labs, Umbra, and HawkEye 360; GPS; miniature CubeSats for education and research; and military/defense satellites.

Loading next visibility...
Identifier
41945, 2017-007B
Orbit
GEO
Country
Flag of UnknownUnknown / ITSO
Related business
Manufacturer
Airbus/Toulouse
Mission
Operational Commercial Communications
Bus & Motor
EUROSTAR 3000X, R-4D?
Mass
~6,300 kg wet, ~3,000 kg dry
Launch date (UTC)
2017-02-14 (9 years ago)
Launch vehicle
ARIANE 5ECA
Launch site
French Guiana (FRGUI)
Object type
Payload
Rocket body
Debris
Shape & HBR
Box + 2 Pan, 19.5 m
Radar Cross Section
46.485 m², Large (>1 m²)

Expand to show TLE details & history
Last TLE update: 9 hours ago

TLE from 9 hours ago
0 INTELSAT 32E
1 41945U 17007B   25293.25769664 -.00000267  00000-0  00000-0 0  9990
2 41945   0.0264 107.3159 0000657 264.5620  66.7031  1.00271906 31818
Epoch: 2025-10-20T06:11Z
TLE epoch observation values (Epoch: 2025-10-20T06:11:04.989Z)
Latitude
-0.01342°
Longitude
-43.17201°
Altitude
35,784.945 km
Speed
3.075 km/s
True Right ascension
05h 14m 14s
True Declination
0° 00' 48"
Sunlit
Object was in daylight at epoch
Visualization orbit readout
Latitude
Unknown
Longitude
Unknown
Altitude
Unknown
Speed
Unknown
Apparent Right ascension
Unknown
Apparent Declination
Unknown
Sunlit
N/A
Visualization observer readout
Local Sidereal Time
10:20:48
Azimuth
Unknown
Elevation
Unknown
Doppler factor
Unknown
Orbital elements
Apogee altitude
35,790.402 km
Perigee altitude
35,784.861 km
Semi-major axis
42,165.768 km
Eccentricity
0.00007
Inclination
0.0264°
RAAN
107.3159°
Arg. of periapsis
264.562°
True anomaly
66.71002°
Mean anomaly
66.7031°
Eccentric anomaly
66.70656°
Mean motion
0.25067 °/min
Orbital period
1,436.15 mins
BSTAR
0
Loading maneuver chart data...
Computing Atmospheric mass density...
Loading historical data...
Loading historical data...
Loading historical data...
Loading historical data...
Loading historical data...
Loading historical data...
Loading historical data...
Other satellites on launch #7 in the year 2017 (2017-02-14 UTC)

Documentation

Showing up to 5 results
|